Location: Ottawa
(45.4170°N, 75.7000°W)
Time: 20:02:50
(UTC-04:00)

Daily predictions for brighter satellites

Satellite Brightness Start Highest point End
(mag) Time Altitude Azimuth Time Altitude Azimuth Time Altitude Azimuth
Cosmos 2266 Rocket 4.1 21:20:17 10° S 21:26:31 68° E 21:32:39 10° NNE
Cosmos 2315 Rocket 4.3 21:23:38 10° N 21:29:44 54° ENE 21:35:47 10° SSE
ALOS 4.3 21:26:26 10° SSW 21:30:26 28° W 21:34:28 10° NW
CZ-4B R/B 4.4 21:26:03 10° NE 21:30:43 31° E 21:35:16 10° SSE
H-2A R/B 3.8 21:28:48 10° ESE 21:32:40 20° ENE 21:36:34 10° NNE
Cosmos 1680 Rocket 3.6 21:27:33 10° NNW 21:32:50 86° ENE 21:38:06 10° SSE
Cosmos 2227 Rocket 4.0 21:31:34 10° ESE 21:33:15 11° E 21:34:55 10° ENE
Cosmos 1805 Rocket 4.3 21:31:02 10° SSE 21:35:04 35° E 21:39:06 10° NNE
Cosmos 923 Rocket 4.3 21:32:12 10° NNW 21:37:23 68° WSW 21:42:31 10° S
Cosmos 1300 3.5 21:35:23 10° N 21:38:59 37° ENE 21:42:35 10° SE
Cosmos 1833 4.3 21:36:08 10° SSW 21:41:51 89° WNW 21:47:34 10° NNE
YAOGAN 6 3.0 21:38:42 10° SSE 21:42:11 46° ENE 21:45:39 10° N
USA 229 DEB 4.0 21:35:23 10° SW 21:42:19 81° NW 21:49:23 10° NE
Tiangong 1 2.7 21:40:16 10° SSW 21:42:21 17° SSE 21:44:26 10° ESE
USA 229 3.9 21:35:29 10° SW 21:42:25 81° NW 21:49:30 10° NE
Cosmos 2333 Rocket 3.5 21:38:42 10° N 21:43:43 30° NE 21:48:42 10° ESE
SL-16 R/B 4.4 21:40:42 10° N 21:43:52 15° NE 21:47:02 10° ENE
SPOT 1/Viking Rocket 3.9 21:39:40 10° SE 21:44:38 51° ENE 21:49:37 10° N
AVUM R/B 4.2 21:43:36 10° SW 21:45:52 39° WNW 21:48:22 10° NNE
Cosmos 1898 Rocket 4.3 21:43:39 10° SSE 21:48:10 31° E 21:52:44 10° NE
Cosmos 1707 Rocket 3.8 21:47:09 10° N 21:51:27 55° ENE 21:55:44 10° SSE
Cosmos 1939 Rocket 3.8 21:47:42 10° S 21:51:29 45° W 21:55:14 10° NNW
Cosmos 1437 Rocket 4.3 21:48:18 10° NNW 21:51:46 33° W 21:55:14 10° SSW
H-2A R/B 3.1 21:47:31 10° S 21:51:53 47° W 21:56:16 10° NNW
COSMOS 2428 2.8 21:50:06 10° NNW 21:55:49 79° ENE 22:01:17 11° SSE
Cosmos 1666 Rocket 4.0 21:53:24 10° SSE 21:57:33 44° E 22:01:47 10° NNE
MetOp-A 4.2 21:52:44 10° SSE 21:58:05 87° WSW 22:03:29 10° NNW
SPOT 5 3.1 21:54:23 10° S 21:58:56 68° WSW 22:03:48 10° NNW
Cosmos 2297 Rocket 4.0 21:57:44 10° ESE 22:00:10 13° E 22:02:47 10° ENE
Cosmos 1455 4.1 21:58:47 10° NNE 22:01:23 17° ENE 22:03:46 11° ESE
BREEZE-M DEB (TANK) 2.8 21:59:40 10° WNW 22:01:37 38° NNE 22:03:56 10° E
NOSS 3-1 (A) 3.8 21:56:23 10° S 22:01:54 43° ESE 22:07:58 10° NE
Cosmos 2219 Rocket 2.7 21:58:38 10° NNW 22:04:04 49° ENE 22:08:52 13° SE
PSLV R/B 3.9 22:01:07 10° S 22:04:06 50° W 22:07:06 10° NNW
ARGOS 3.3 21:59:31 11° SSE 22:04:44 65° ENE 22:10:05 10° N
NOSS 0 Rocket 4.2 22:10:12 10° NNW 22:16:17 57° ENE 22:21:19 15° SE
Cosmos 2237 4.5 22:11:40 10° NNW 22:17:23 68° WSW 22:22:30 13° SSE
Cosmos 1726 2.1 22:16:31 10° N 22:20:19 89° W 22:23:25 15° S
Cosmos 1437 4.5 22:17:56 10° SW 22:20:57 34° WNW 22:24:00 10° N
Cosmos 1980 4.2 22:17:30 10° NNW 22:23:01 50° ENE 22:27:20 16° SE
ATLAS 2AS CENTAUR R/B 3.7 22:18:20 10° SSE 22:24:33 31° ESE 22:31:16 10° NE
USA 32 4.1 22:19:39 10° N 22:24:55 67° E 22:29:10 16° SSE
CZ-4C R/B 3.2 22:24:04 20° SSE 22:26:18 57° ENE 22:29:44 10° N
Cosmos 292 Rocket 3.7 22:22:31 10° NNW 22:27:18 80° ENE 22:30:47 18° SSE
Landsat 7 3.9 22:27:03 17° SSE 22:30:37 68° ENE 22:35:22 10° N
Cosmos 2219 3.6 22:24:54 10° SW 22:30:38 70° WNW 22:36:24 10° NNE
ERBS 3.7 22:32:03 21° ESE 22:32:03 21° ESE 22:34:25 10° ENE
Cosmos 2237 Rocket 2.5 22:30:01 10° NNW 22:35:40 58° ENE 22:39:42 19° SE
Cosmos 2333 4.5 22:30:04 10° NNW 22:35:44 66° WSW 22:40:15 17° S
Cosmos 1271 Rocket 2.7 22:33:41 10° NNW 22:37:32 87° W 22:40:05 21° S
ATLAS 3B R/B 3.5 22:31:17 10° NNW 22:38:08 45° NE 22:44:01 12° ESE
Meteor 2-10 4.2 22:33:03 10° N 22:38:48 78° E 22:43:05 19° SSE
Cosmos 2082 4.2 22:38:00 16° S 22:42:07 41° ESE 22:47:27 10° NE
Meteor 1-4 Rocket 2.8 22:39:19 10° NNW 22:43:05 67° W 22:45:29 20° S
Cosmos 2242 Rocket 3.8 22:38:55 10° NNW 22:43:23 72° W 22:46:44 18° S
Cosmos 1703 3.2 22:41:15 18° S 22:44:06 79° E 22:48:01 10° N
SL-14 R/B 3.9 22:40:30 10° SSW 22:44:23 57° WNW 22:48:22 10° N
Cosmos 1346 3.6 22:45:04 32° SE 22:45:52 40° E 22:48:46 10° NNE
Terra 1.9 22:43:25 22° SSE 22:46:29 68° ENE 22:51:13 10° N
Cosmos 2360 Rocket 4.2 22:42:24 10° NW 22:46:33 21° W 22:50:39 10° SSW
Cosmos 1937 Rocket 3.4 22:41:40 10° SSW 22:46:53 74° ESE 22:52:05 10° NNE
NOSS 3-1 (C) 3.6 22:42:28 10° SW 22:48:24 78° NW 22:55:05 10° NE
Cosmos 2298 Rocket 4.3 22:43:16 10° SSW 22:48:35 69° WNW 22:53:55 10° NNE
Iridium 2 3.6 22:47:14 21° S 22:49:42 84° E 22:53:34 10° N
Cosmos 1862 Rocket 3.6 22:45:54 10° N 22:50:14 62° E 22:52:33 26° SSE
Spot 4 4.1 22:47:26 23° SE 22:50:23 59° ENE 22:55:10 10° N
Lacrosse 4 Rocket 3.0 22:46:34 10° NNW 22:50:27 29° NE 22:53:24 15° ESE
Sich 1 3.7 22:49:11 10° SSW 22:53:31 54° WNW 22:57:50 10° N
CARTOSAT-1 3.5 22:51:08 24° SSE 22:53:40 83° ENE 22:58:00 10° NNW
FALCON 9 R/B 4.2 22:29:31 10° WSW 22:54:46 49° SSW 23:00:30 18° SE
Cosmos 1633 Rocket 3.8 22:52:55 10° SSW 22:57:13 52° WNW 23:01:30 10° N
Cosmos 990 Rocket 3.9 22:53:44 16° S 22:57:46 66° ESE 23:02:53 10° NNE
Cosmos 1626 2.1 23:01:03 31° S 23:02:42 66° E 23:06:27 10° NNE
OAO 2 Rocket 4.4 22:58:53 10° SW 23:03:10 25° S 23:03:20 25° S
COSMOS 2455 3.3 23:00:21 10° NNW 23:06:18 56° NE 23:10:14 21° SE
Cosmos 1269 Rocket 4.4 23:05:59 10° NNW 23:11:14 56° ENE 23:14:03 26° SE
H-2A R/B 2.4 23:08:03 22° S 23:11:32 66° WSW 23:16:59 10° NNW
Cosmos 2227 Rocket 2.1 23:11:30 15° SSW 23:16:18 78° ESE 23:21:59 10° NNE
Cosmos 1933 3.7 23:13:39 10° N 23:17:37 50° ENE 23:18:58 35° SE
Tiangong 1 2.4 23:15:33 10° WSW 23:17:12 26° SW 23:17:12 26° SW
Cosmos 1869 Rocket 4.5 23:19:15 29° SE 23:20:29 35° E 23:24:34 10° NNE
BREEZE-M DEB (TANK) 4.1 23:10:02 10° W 23:24:59 67° N 23:28:54 10° E
Cosmos 2333 Rocket 2.7 23:22:41 10° NW 23:28:15 51° WSW 23:31:18 26° S
Cosmos 192 4.5 23:23:44 10° NNW 23:28:38 68° WSW 23:30:50 32° S
SL-16 R/B 2.3 23:23:25 10° NNW 23:29:07 69° ENE 23:32:01 29° SE
Cosmos 389 Rocket 3.6 23:25:53 10° N 23:29:08 31° ENE 23:29:47 29° E
Cosmos 1241 Rocket 4.4 23:23:19 10° SSW 23:29:31 90° WNW 23:35:50 10° NE
IGS 5A 4.2 23:29:10 26° SSW 23:31:05 44° W 23:35:07 10° NNW
SeaSat 1 3.0 23:29:32 26° ESE 23:32:07 51° NE 23:36:54 10° NNW
ALOS 2 4.2 23:31:51 19° E 23:33:38 25° ENE 23:37:14 10° N
Cosmos 1048 Rocket 4.1 23:29:30 10° NNW 23:34:52 71° ENE 23:37:19 33° SE
Cosmos 1125 Rocket 3.6 23:33:30 32° S 23:35:54 62° ESE 23:41:10 10° NNE
Cosmos 1455 3.4 23:33:46 10° NNW 23:37:16 35° W 23:38:49 25° SW
CZ-4B R/B 3.5 23:36:58 16° E 23:37:46 17° ENE 23:40:04 10° NNE
Cosmos 2297 Rocket 2.1 23:39:29 21° SSW 23:43:20 89° ESE 23:49:02 10° NNE
Okean 1-7 3.2 23:40:05 10° N 23:44:19 57° ENE 23:45:28 42° SE
NOSS 2-3 (D) 4.4 23:46:30 36° SE 23:47:25 39° ESE 23:52:35 10° NE
Cosmos 2219 Rocket 3.6 23:43:07 10° NW 23:47:44 27° WSW 23:50:35 18° SW
Cosmos 1703 Rocket 3.6 23:46:52 10° NNW 23:51:14 75° W 23:52:36 43° S
